GFSNE_850_spd_057.txt.gz
Wind_Speed
34 34 33 32 32 31 29 26 26 23 17 16 15 13 12 16 25 31 32 32 32 32 32 32 32 30 27 26 26 26 26 26 27 27 29 29 28 30
33 32 31 29 28 25 25 24 22 19 15 13 17 24 24 22 26 30 32 32 31 32 31 31 28 25 25 25 25 25 25 26 27 28 29 28 30 29
29 29 28 26 24 23 20 17 16 16 20 21 22 19 22 24 27 29 30 31 32 31 30 28 27 23 23 23 24 25 25 26 27 27 28 28 28 28
27 24 23 21 20 17 14 14 14 14 17 16 20 21 24 25 27 29 29 30 31 30 27 24 22 22 23 23 23 23 24 25 26 28 29 30 31 31
21 18 16 15 14 14 15 16 15 14 15 22 23 24 25 26 28 28 29 30 28 24 22 21 21 20 21 23 23 24 26 28 29 30 30 31 32 32
13 14 15 15 15 15 15 13 13 15 16 21 23 24 26 26 27 28 27 27 28 23 23 19 21 23 21 22 25 26 28 28 29 30 30 30 31 32
12 11 11 10 11 12 11 11 13 16 17 20 23 24 25 23 20 25 28 25 27 25 25 26 26 26 24 26 25 24 25 27 28 29 29 30 31 32
8 8 7 7 7 7 9 11 13 16 18 20 23 24 20 22 25 22 22 27 27 25 31 29 31 32 29 24 23 23 23 26 29 29 30 30 30 31
3 3 5 6 8 11 12 13 14 16 16 16 18 20 23 23 21 22 23 23 28 32 32 36 33 32 26 28 25 26 25 22 23 25 26 27 28 29
1 4 6 8 11 13 14 13 15 16 16 19 21 21 18 17 20 23 24 27 30 31 29 31 31 32 35 36 33 22 20 22 23 24 25 26 28 30
6 8 10 12 12 11 12 16 18 18 17 16 14 14 16 16 17 21 22 26 29 32 30 25 34 38 39 36 30 29 32 29 29 28 27 27 29 30
9 11 11 12 11 8 10 16 18 14 13 12 11 12 14 15 15 18 20 24 27 32 24 29 35 31 27 34 36 38 35 33 30 29 28 27 28 29
11 12 12 11 8 10 10 12 11 11 12 12 13 13 13 13 13 15 19 23 25 29 30 26 35 35 28 36 42 40 39 36 35 32 28 24 20 20
10 11 11 11 10 8 7 6 7 9 11 12 12 12 13 11 14 17 19 22 24 27 25 24 30 29 31 36 43 44 40 37 33 30 23 24 23 22
10 10 9 8 6 4 4 6 8 9 11 12 13 13 12 14 17 20 21 23 26 24 22 21 23 25 27 33 38 40 41 38 24 28 29 28 28 26
8 8 6 4 4 5 6 8 9 10 12 14 16 14 14 17 19 22 25 26 28 26 24 25 24 25 27 28 31 36 32 35 33 32 32 32 29 27
10 7 5 3 4 5 6 8 9 10 12 14 16 15 16 19 21 22 23 26 28 30 31 27 27 28 28 28 31 32 34 37 35 34 33 34 29 26
6 4 4 5 7 8 9 9 8 11 13 15 15 15 17 20 25 23 25 28 31 31 32 29 30 31 32 30 24 33 38 38 37 33 31 33 35 29
4 5 6 8 9 11 12 12 11 12 14 16 16 16 17 21 25 28 28 30 33 31 31 31 33 30 31 34 32 24 31 32 30 30 27 27 30 26
5 6 8 10 12 12 14 15 13 14 16 18 16 16 17 22 26 29 31 32 32 33 35 32 31 31 28 33 39 36 29 31 28 29 27 25 24 23
5 7 9 11 12 14 16 17 17 16 18 20 18 17 18 22 27 30 31 30 30 33 36 35 32 29 29 31 32 37 32 25 23 23 24 27 27 27
8 10 11 12 14 15 17 18 17 17 19 19 18 18 19 22 28 31 30 31 32 34 36 37 36 33 31 30 33 36 34 29 22 21 19 17 20 21
10 11 12 14 15 16 17 19 19 19 21 21 20 18 20 24 27 31 32 31 33 35 36 37 36 32 31 30 30 35 33 31 29 29 23 16 19 23

GFSNE_850_spd_060.txt.gz
Wind_Speed
36 35 38 41 40 37 32 28 28 22 23 21 22 23 25 21 22 24 31 35 33 34 34 34 34 35 35 34 31 29 27 26 26 27 27 27 29 29
37 39 40 34 32 31 29 27 26 23 16 15 18 20 19 19 28 33 29 31 32 33 33 33 33 33 32 29 25 23 24 25 25 26 27 27 28 28
33 31 31 31 25 24 21 19 18 18 18 20 24 24 26 26 21 24 28 29 30 33 32 31 30 28 26 24 24 24 24 25 25 26 27 26 27 28
27 25 24 24 26 19 18 15 19 20 20 20 21 21 20 18 23 27 27 28 30 30 29 26 24 24 24 24 24 23 24 25 25 27 28 28 30 30
19 18 17 16 16 14 14 17 17 17 17 16 17 17 18 21 23 22 21 25 24 25 23 20 21 20 22 23 24 25 26 27 28 29 30 30 31 31
15 13 12 12 13 14 14 14 13 13 14 16 17 16 15 15 18 18 17 18 20 21 22 19 21 21 20 22 23 26 28 29 29 29 29 30 30 31
11 9 11 11 12 12 12 11 11 12 13 13 12 11 13 13 15 15 17 17 20 22 17 16 18 22 23 24 25 25 24 25 27 29 28 29 30 31
8 8 10 10 8 6 8 10 11 11 13 11 11 13 14 14 14 15 16 18 20 17 16 23 22 24 25 25 26 26 25 26 29 30 29 30 30 31
7 5 3 4 6 8 8 9 12 15 16 13 14 14 15 14 17 19 15 18 23 21 22 26 22 23 23 26 27 26 22 20 21 24 27 27 28 29
2 1 3 5 7 8 9 11 13 13 13 15 14 14 14 13 13 16 18 19 20 20 18 25 22 23 26 27 28 20 19 21 21 22 25 27 29 30
1 3 5 7 8 7 8 12 11 11 14 14 13 12 13 13 14 17 17 15 20 23 22 20 22 23 33 31 23 25 27 26 25 25 26 27 29 30
6 7 8 8 8 7 7 9 11 9 10 9 8 9 10 11 13 14 16 19 21 23 13 24 28 22 21 31 26 32 29 31 29 30 29 28 27 29
7 8 8 8 9 10 9 8 9 7 10 9 9 10 10 11 11 12 16 19 22 26 25 22 31 30 23 31 39 37 35 34 34 33 29 23 19 21
9 10 10 11 10 7 5 6 6 7 9 9 10 10 11 11 12 14 17 20 23 26 22 23 27 26 27 33 37 37 35 36 35 29 24 29 27 25
9 9 9 8 5 4 4 5 7 8 10 10 11 12 14 13 14 16 18 21 24 22 20 19 23 24 26 32 36 36 35 32 26 30 30 30 28 28
7 7 5 3 2 3 5 7 8 9 10 12 13 14 14 14 15 18 22 22 26 26 26 25 24 23 26 29 31 36 32 29 32 29 30 31 30 28
6 5 3 3 4 6 8 9 10 11 12 14 16 16 16 16 17 19 21 23 26 29 30 23 22 24 27 28 32 32 33 35 33 33 32 34 31 26
5 4 4 4 6 7 9 10 11 12 14 15 17 18 18 18 19 22 22 23 26 28 27 26 27 28 28 27 25 31 34 35 34 32 29 29 32 25
5 5 5 6 7 9 10 12 12 13 15 17 18 19 19 20 20 22 23 26 27 27 27 28 29 27 29 30 30 25 31 32 31 30 27 26 29 26
6 7 7 9 10 11 12 13 15 15 16 17 19 20 19 20 21 22 25 28 29 27 29 29 26 25 28 34 39 37 26 29 31 30 30 28 29 26
9 9 10 11 12 13 14 15 17 17 18 19 20 21 21 20 22 22 26 28 27 28 32 34 31 27 30 32 33 36 34 29 28 29 29 29 30 31
10 10 11 12 13 15 16 17 18 18 19 20 22 22 22 20 22 24 26 31 30 31 33 36 34 33 33 32 35 38 38 34 28 25 23 24 28 24
12 12 12 13 14 16 18 19 20 20 20 21 23 22 21 22 21 24 28 31 31 32 31 35 37 36 34 31 33 37 36 36 35 33 30 24 24 27

GFSNE_850_spd_063.txt.gz
Wind_Speed
37 38 43 45 43 39 39 34 27 20 20 24 20 20 21 26 30 30 30 31 30 30 37 35 33 33 34 34 33 31 29 26 23 23 22 23 23 24
34 36 37 40 40 36 33 30 26 19 17 15 15 21 23 26 27 31 31 32 33 32 31 32 33 33 33 31 28 25 22 22 22 23 23 23 24 24
30 32 33 33 32 27 28 22 21 17 18 21 19 23 24 27 27 27 28 28 27 27 30 32 32 32 29 27 25 24 23 23 22 23 23 23 25 24
27 26 26 26 24 21 17 14 15 14 15 17 19 20 21 20 21 21 22 25 27 28 28 28 27 25 25 25 25 24 24 23 23 23 24 24 25 26
20 18 16 14 12 11 10 12 13 14 15 14 15 15 15 17 19 20 19 21 23 23 23 23 20 22 20 23 25 25 24 25 25 26 26 27 27 28
11 9 8 7 7 9 11 13 12 11 11 11 13 14 14 13 14 15 16 15 21 21 20 21 19 19 19 21 22 23 25 26 26 26 26 27 27 27
10 9 9 8 9 9 8 7 8 10 11 11 9 9 10 10 9 12 17 19 21 21 14 15 17 21 22 22 24 24 23 23 24 25 25 26 27 28
7 6 6 5 4 3 6 8 9 8 8 9 9 10 9 10 12 13 18 21 21 13 14 21 20 24 23 22 23 23 24 24 25 26 27 27 27 27
4 4 4 1 1 4 5 6 8 9 10 12 13 11 12 12 17 19 20 15 19 19 19 25 22 26 24 25 25 26 25 21 20 21 23 26 27 27
4 3 2 3 5 6 7 9 10 11 11 12 12 13 13 13 12 13 14 17 20 18 15 26 24 26 27 29 28 22 17 19 19 18 21 24 26 27
4 5 6 7 8 8 8 11 8 8 10 12 10 10 11 12 13 15 15 16 19 20 18 18 25 29 32 31 22 24 27 27 26 25 23 25 26 28
7 8 8 9 9 9 8 7 11 8 9 9 7 8 8 9 11 12 13 15 17 22 12 23 27 28 30 35 34 33 30 30 28 27 26 26 26 27
9 10 11 11 12 12 11 9 9 8 6 7 6 7 8 9 11 11 13 16 19 22 22 19 29 29 30 36 40 39 34 34 34 32 28 24 21 22
9 10 10 12 11 8 5 5 5 6 5 6 8 8 10 12 13 13 14 17 20 23 21 22 27 27 30 35 42 39 35 32 31 30 24 27 24 23
11 12 12 10 6 4 4 5 6 6 7 8 9 10 13 14 14 15 16 18 21 22 21 18 23 24 27 32 37 39 37 31 22 27 29 27 27 27
11 10 8 6 4 4 5 6 7 8 9 10 12 13 15 15 15 15 18 20 24 25 23 20 20 21 27 29 33 38 34 34 33 29 28 30 31 30
11 7 5 4 5 6 8 8 9 10 11 12 14 15 16 17 17 17 18 21 24 26 28 26 22 23 26 28 34 34 35 35 36 36 35 37 35 30
8 6 5 6 7 8 10 11 11 13 13 15 16 18 19 20 19 19 19 21 23 26 29 28 26 28 29 29 27 34 34 36 38 36 32 33 34 28
7 7 8 8 9 10 12 12 13 14 16 17 18 19 20 22 21 21 21 22 25 26 28 28 26 26 30 32 30 27 35 36 32 32 32 31 35 33
9 9 10 11 12 13 13 14 15 15 16 17 18 19 21 22 23 23 22 23 26 28 33 29 26 25 28 34 41 42 29 31 33 37 37 34 34 30
12 12 12 13 13 14 14 15 16 17 18 19 19 20 21 22 23 22 22 22 23 28 33 32 29 27 29 32 35 40 38 32 33 33 34 36 37 33
14 14 14 15 15 15 16 17 18 19 19 20 21 21 22 23 24 23 23 25 26 30 33 32 31 31 31 34 39 41 41 39 39 33 28 28 29 28
16 16 16 16 16 17 17 18 19 20 20 21 22 22 23 24 25 25 26 26 29 33 33 35 34 34 36 36 37 39 40 40 41 40 35 28 26 26

GFSNE_850_spd_066.txt.gz
Wind_Speed
33 37 41 43 41 41 41 40 37 26 31 31 28 31 29 22 22 27 28 31 33 32 30 28 30 29 29 30 31 30 29 27 23 19 20 20 21 21
31 33 35 37 39 40 39 38 36 30 23 25 16 18 14 18 22 26 26 26 27 26 26 26 26 27 28 28 28 26 23 20 19 19 20 20 20 21
26 28 30 33 35 35 32 29 25 23 19 16 15 16 16 17 19 20 21 22 22 22 24 25 25 26 27 26 24 22 21 20 20 19 19 20 20 20
21 21 25 27 27 24 21 16 12 11 10 12 17 14 14 13 13 17 19 19 22 22 21 22 22 21 20 20 21 21 21 21 20 20 20 21 22 22
17 13 18 16 14 12 10 9 8 10 9 13 9 7 9 12 13 15 16 16 16 16 17 19 18 18 18 18 18 19 20 21 21 22 22 23 23 24
8 11 8 6 5 4 5 6 6 5 7 8 7 7 9 9 9 10 10 12 16 18 17 17 15 13 14 15 18 19 20 21 21 21 22 23 23 23
5 6 6 5 4 4 5 5 5 5 6 7 6 6 5 7 8 9 13 17 18 18 13 10 12 14 14 15 18 19 18 18 19 21 23 24 25 26
2 3 1 3 4 4 4 4 6 6 5 5 6 6 7 7 11 13 15 18 21 9 14 12 13 14 14 15 17 18 19 20 22 22 23 24 24 25
2 2 0 2 3 4 4 5 5 6 7 9 9 8 9 12 14 16 17 16 13 13 15 15 15 16 16 18 19 20 17 16 17 19 22 22 23 24
1 4 2 2 3 5 6 8 8 9 9 9 10 10 12 13 13 12 11 12 12 12 12 22 17 19 21 21 19 12 14 17 17 19 20 21 22 24
6 6 5 7 7 7 8 9 8 8 9 10 8 7 8 9 9 10 10 12 16 14 11 16 22 26 26 22 14 20 22 23 23 20 20 20 22 24
8 9 8 8 10 11 10 9 10 10 9 8 7 5 5 6 7 9 10 12 13 14 8 20 25 27 25 24 32 30 27 25 24 26 24 21 21 23
8 9 11 11 10 10 10 8 8 8 8 8 4 5 6 7 8 10 11 12 14 17 18 19 26 26 25 33 36 34 30 29 27 26 22 17 18 22
8 10 10 11 9 6 4 3 3 4 4 4 6 7 8 9 11 13 12 14 16 18 18 19 25 25 27 33 38 37 36 32 27 24 20 24 22 21
10 10 10 9 6 5 3 4 5 5 6 7 7 9 10 11 12 13 13 14 16 17 19 18 21 22 24 29 36 38 37 36 22 28 27 26 26 24
11 10 8 5 4 3 4 5 6 7 8 9 10 11 12 13 13 13 14 15 18 19 18 17 19 21 24 27 30 36 33 33 32 31 33 30 27 26
10 7 5 4 4 5 6 8 9 10 10 12 13 13 14 15 15 15 15 16 19 20 21 20 21 21 23 25 31 33 33 33 34 37 37 35 33 31
8 7 5 6 6 8 9 10 12 12 12 13 14 15 16 17 18 17 17 18 19 19 22 22 25 26 26 29 26 32 33 36 37 35 31 34 36 29
9 8 8 8 9 10 12 13 12 12 13 14 15 15 16 18 19 19 19 20 20 21 22 22 25 26 28 32 31 24 31 34 33 34 31 32 37 35
10 10 10 11 11 13 14 13 13 13 14 15 16 16 17 18 20 20 21 21 21 22 24 24 25 26 25 31 37 37 27 33 33 35 35 33 38 35
13 13 13 13 14 15 15 15 15 15 16 17 17 17 18 19 20 21 22 21 22 23 26 26 25 23 26 28 35 39 37 33 33 32 34 36 39 37
14 15 14 15 15 17 17 17 17 17 17 18 18 18 18 18 21 22 23 25 26 27 28 29 27 26 29 30 35 39 41 40 40 35 34 31 32 31
16 16 16 16 16 18 19 19 19 19 19 20 20 20 20 21 22 24 25 26 28 29 30 31 30 29 32 30 36 39 41 40 42 42 36 30 31 28

GFSNE_850_spd_069.txt.gz
Wind_Speed
26 28 30 31 33 35 38 38 40 27 34 35 33 38 41 39 37 31 31 30 28 23 22 23 25 26 26 26 26 25 25 25 23 20 16 16 16 17
24 24 27 28 30 31 31 33 35 35 30 23 28 33 28 27 32 26 28 24 20 18 23 23 24 24 24 25 24 24 23 20 17 17 16 16 16 16
19 21 24 24 25 25 24 26 26 24 23 26 23 22 22 19 23 18 18 18 18 22 21 21 22 24 22 23 23 20 18 17 17 16 16 16 16 17
16 18 18 19 19 20 18 21 17 15 17 19 20 17 13 15 15 14 16 16 18 18 19 19 18 17 17 17 15 16 16 16 16 16 16 17 17 18
14 15 15 14 14 11 13 10 7 6 7 9 10 11 11 11 13 12 14 15 16 15 15 15 16 15 14 13 12 13 15 16 17 17 18 18 18 19
9 8 9 7 4 2 3 4 5 5 4 6 8 8 9 10 10 11 12 12 12 11 14 14 14 11 9 10 13 15 16 17 18 17 17 18 19 19
1 1 1 3 3 2 3 5 5 5 4 3 7 8 8 8 8 9 9 11 13 13 12 7 8 9 9 12 13 12 13 13 15 16 17 19 20 21
3 2 0 2 4 3 5 7 6 4 5 7 8 7 7 8 9 10 12 14 14 7 8 5 8 6 9 9 9 11 13 14 15 16 17 19 21 22
2 1 1 2 4 4 5 3 3 5 6 9 9 10 10 11 12 13 14 14 10 6 11 7 5 5 8 9 11 12 9 7 11 14 16 17 19 20
2 2 3 3 4 6 7 7 7 8 9 9 10 10 11 12 13 12 10 9 10 8 9 13 8 8 10 11 8 2 7 12 13 17 19 20 20 20
4 5 5 6 7 8 8 8 8 7 8 9 9 8 7 8 10 10 9 11 12 8 8 9 14 16 16 10 3 13 13 15 17 16 18 21 22 21
9 8 8 7 8 10 9 8 8 8 8 8 7 6 5 5 6 8 9 10 11 7 3 13 16 18 14 10 20 20 19 16 20 19 19 19 20 21
9 9 9 9 9 9 9 6 4 6 6 6 4 4 5 6 8 9 10 12 12 13 11 14 19 21 20 26 27 25 21 22 20 18 14 10 16 19
9 9 8 7 7 5 3 2 3 4 4 4 5 6 7 9 10 11 13 13 14 16 15 16 20 22 22 27 31 28 26 24 22 14 17 16 17 17
10 11 10 8 5 3 2 3 4 4 5 6 7 8 9 9 10 12 12 13 15 15 14 15 17 18 19 25 31 31 30 29 17 23 20 20 20 18
10 9 7 5 4 3 3 5 6 7 8 8 9 10 11 11 11 12 13 14 16 15 11 13 16 15 21 24 27 30 27 25 26 24 26 24 22 21
9 7 6 5 4 5 6 8 9 10 11 11 11 11 11 12 13 13 14 15 16 17 16 12 14 15 20 22 27 26 25 25 25 28 29 28 24 23
9 7 6 6 6 8 9 10 11 12 11 11 11 12 13 13 14 14 15 16 18 18 18 15 17 19 23 25 20 23 26 28 28 29 29 31 32 27
10 9 9 9 9 10 11 13 13 11 12 12 13 13 14 14 15 16 16 17 19 19 18 18 17 17 23 30 29 21 25 31 28 28 27 30 33 30
12 11 11 11 12 12 13 14 13 13 13 14 14 14 15 15 16 15 16 19 19 20 22 22 20 18 22 28 33 35 25 27 29 30 31 32 35 32
13 13 13 13 13 14 15 15 15 14 14 15 15 16 15 15 15 15 17 18 20 21 24 24 20 19 24 27 31 34 31 25 28 31 32 35 38 36
14 14 14 15 15 16 17 17 17 16 16 17 17 16 16 17 18 19 19 21 22 23 25 24 22 22 23 26 31 35 34 33 33 30 27 27 33 32
16 15 15 16 16 17 18 19 20 19 19 19 19 19 19 21 20 21 22 23 24 26 25 27 26 25 27 28 30 34 32 36 38 37 34 29 35 31

GFSNE_850_spd_072.txt.gz
Wind_Speed
22 24 26 26 26 24 26 27 32 26 27 30 30 31 30 33 33 32 33 32 32 29 28 23 21 21 22 23 26 24 24 21 21 21 19 15 15 15
26 25 22 21 21 23 24 24 25 29 30 29 25 24 23 28 30 33 32 30 28 24 22 19 18 18 21 24 22 21 22 21 19 15 15 15 16 14
18 16 15 16 19 19 20 21 22 22 23 24 21 20 23 24 27 33 27 27 23 23 22 18 18 20 21 22 22 23 20 17 15 14 14 14 15 15
13 13 13 15 17 18 16 16 17 18 17 16 13 13 14 15 18 19 21 20 19 17 16 17 16 19 20 21 20 18 16 15 14 14 14 15 15 16
9 10 11 12 14 14 14 14 12 11 9 7 7 9 12 14 14 15 14 15 16 15 15 16 18 19 20 17 17 14 14 15 15 15 16 16 16 17
5 5 6 6 8 10 8 7 6 7 6 6 7 9 11 11 11 12 13 12 13 12 13 15 18 18 17 15 14 15 15 15 15 16 16 16 17 17
4 3 3 5 5 5 5 5 6 8 6 6 7 6 8 9 8 9 10 11 11 13 15 17 15 12 12 14 14 13 14 14 14 16 16 16 17 19
5 4 3 3 4 5 6 7 8 7 6 4 4 6 7 8 9 10 11 12 13 10 12 9 12 10 12 12 13 13 14 15 16 16 16 17 18 18
3 4 5 6 7 7 7 6 6 6 6 5 6 8 9 10 10 11 12 13 13 8 11 8 9 9 11 11 13 15 15 13 12 16 19 19 20 21
3 4 5 6 8 8 8 8 9 9 9 9 9 9 10 11 11 12 11 10 9 9 11 9 7 8 9 12 12 9 7 12 15 18 20 21 23 24
6 6 6 8 9 10 9 10 9 8 8 9 9 7 8 6 8 8 7 8 9 6 10 12 9 12 12 10 10 11 12 13 15 15 20 23 24 25
6 6 6 7 8 9 9 8 7 7 8 8 7 7 6 5 7 8 8 9 10 7 6 10 14 14 8 7 11 15 15 11 14 16 19 20 20 21
7 7 7 7 7 8 7 5 4 5 6 5 4 4 5 7 8 9 10 12 13 13 9 13 16 16 15 20 19 17 13 14 14 15 15 11 15 18
8 9 8 7 7 6 4 3 4 5 5 5 5 6 8 10 11 11 12 14 15 16 15 16 19 17 19 22 26 22 21 17 17 12 11 16 16 19
9 8 8 6 4 3 3 4 4 5 6 7 8 9 10 11 11 12 13 13 15 16 15 16 17 17 19 22 26 27 25 21 12 15 15 17 18 18
9 9 7 6 5 5 5 6 7 8 9 10 11 12 13 14 13 14 15 15 17 15 14 14 16 17 20 21 23 26 24 23 20 19 21 22 21 20
9 8 7 7 7 7 8 9 10 11 12 14 13 13 13 14 14 14 14 16 17 18 16 13 15 19 21 21 24 23 23 23 20 21 24 28 23 22
9 9 9 9 9 10 10 11 12 14 14 13 13 14 14 14 15 14 14 16 18 18 18 17 16 17 21 23 22 20 23 24 22 25 25 29 31 23
11 11 11 12 12 13 13 14 14 14 13 14 14 14 14 15 15 16 15 16 18 19 18 16 15 18 22 27 27 23 21 27 29 27 25 27 30 28
13 13 13 14 15 15 16 17 17 16 15 14 15 14 15 16 17 16 15 18 20 21 22 18 17 17 21 26 31 33 27 29 26 27 27 26 30 28
14 16 16 16 16 17 18 19 19 18 17 16 16 16 16 17 18 17 18 19 20 22 26 25 20 19 22 24 31 33 28 24 24 24 26 30 34 32
15 16 16 17 18 18 19 20 21 20 19 19 19 18 18 18 20 20 21 22 22 23 26 26 23 21 23 26 31 33 33 28 25 23 23 26 29 29
16 17 17 17 17 18 19 20 21 22 21 21 21 21 21 21 21 22 23 23 24 25 25 28 27 25 26 27 29 32 34 32 30 30 32 29 28 27

GFSNE_850_spd_075.txt.gz
Wind_Speed
25 22 22 24 23 24 22 23 22 25 25 27 26 25 23 22 22 24 29 28 28 24 24 23 25 28 29 27 24 22 21 22 24 22 20 17 15 14
23 22 22 22 21 17 17 17 19 21 21 23 24 27 25 22 20 20 20 20 22 20 23 25 25 23 21 19 21 21 21 22 19 18 15 15 13 14
17 17 16 17 14 13 14 15 16 17 18 21 21 22 21 18 18 18 18 21 25 24 26 23 20 20 21 22 21 21 20 19 16 15 14 14 13 14
11 10 9 9 10 11 12 14 13 17 17 18 18 18 15 12 12 17 20 22 21 19 19 19 20 21 20 16 18 19 19 17 16 15 15 13 13 13
4 7 6 7 7 9 8 12 10 11 10 10 12 11 9 7 10 13 15 15 15 15 15 15 14 14 18 19 19 17 14 16 15 13 13 13 14 14
2 4 2 3 4 5 5 5 7 8 7 7 8 8 7 7 7 8 10 11 12 12 11 12 14 17 20 20 19 17 16 14 13 14 14 14 15 15
2 2 2 1 2 4 5 6 6 6 7 7 7 7 7 7 9 9 9 10 10 11 14 16 19 19 16 15 13 14 14 14 14 14 14 15 16 16
5 5 5 6 6 7 8 8 8 8 8 7 6 6 7 7 7 9 10 10 11 13 15 13 16 13 14 13 13 14 14 14 15 16 18 17 16 16
5 5 6 7 7 8 8 9 9 9 8 7 7 8 10 11 11 12 12 13 14 14 14 11 10 10 11 12 13 14 15 16 17 17 18 19 20 21
5 6 7 8 9 8 9 9 9 9 9 9 8 8 10 11 12 13 14 13 12 11 11 11 7 8 10 13 15 15 15 13 12 17 20 21 23 25
5 6 6 8 10 10 10 10 9 8 8 9 9 8 8 8 8 9 8 8 8 8 9 11 11 10 12 14 15 14 12 11 16 19 21 22 25 26
6 7 8 8 8 9 8 7 7 6 7 7 8 7 6 6 7 8 9 10 10 8 8 9 12 12 8 10 11 14 15 18 18 18 20 21 23 23
5 6 7 6 6 7 6 5 5 4 5 5 5 4 5 6 8 10 10 12 13 14 13 15 15 16 15 18 16 14 19 16 17 16 18 19 15 18
7 7 8 7 6 6 5 4 5 5 5 5 6 7 8 9 12 13 13 15 16 16 15 16 20 19 19 23 26 21 18 17 16 14 12 12 17 17
8 8 8 7 6 6 5 6 6 7 8 9 10 11 12 13 14 16 15 15 16 16 16 17 18 19 21 24 27 28 26 23 16 6 17 16 18 18
9 9 9 8 7 7 7 8 9 10 11 12 13 14 14 15 14 15 16 16 17 15 14 15 17 20 23 25 26 29 25 26 24 19 19 20 22 22
9 10 10 10 10 10 10 11 12 13 14 16 16 15 14 14 14 14 14 15 16 16 14 12 14 17 21 25 29 28 27 27 24 23 22 26 26 24
11 12 12 12 12 13 14 15 15 16 17 18 17 16 16 15 16 15 15 16 18 16 16 14 15 16 17 22 24 27 24 24 26 22 25 29 29 23
12 13 13 14 15 16 17 18 18 19 20 19 18 17 17 17 16 17 16 17 18 18 17 16 15 16 21 26 28 22 22 22 28 32 27 27 29 26
14 14 15 16 17 18 19 20 21 21 21 20 20 19 19 19 19 18 17 18 20 20 21 18 16 16 20 25 30 33 26 27 27 29 26 24 26 26
15 17 17 18 18 19 20 21 22 22 22 22 21 20 21 21 22 20 20 20 21 23 25 25 19 19 22 24 31 34 32 28 25 26 26 27 29 29
15 17 17 19 20 20 21 21 22 22 23 23 22 22 22 23 24 23 23 24 24 24 26 25 23 21 23 26 30 32 31 29 26 24 23 24 26 30
17 18 18 19 19 20 21 22 22 22 22 22 22 22 23 24 25 24 25 26 27 27 27 27 25 25 26 27 28 31 32 32 31 30 27 20 22 25

GFSNE_850_spd_078.txt.gz
Wind_Speed
22 23 25 25 22 22 22 24 20 14 20 16 17 17 21 20 19 20 17 16 17 19 19 21 24 27 25 24 23 28 27 31 25 22 21 23 17 13
22 22 19 17 17 17 16 11 14 17 15 17 19 20 18 18 21 17 14 11 12 19 22 22 26 22 27 25 26 24 22 18 18 17 15 13 13 13
15 14 13 11 11 8 8 10 11 13 14 15 17 18 17 16 17 14 11 11 15 18 21 23 22 17 16 19 21 22 22 21 18 15 13 12 12 13
9 7 8 6 6 6 7 9 10 11 12 11 12 12 11 11 11 12 13 14 15 16 18 19 20 21 22 21 20 20 20 18 18 14 13 11 11 11
5 3 4 6 6 5 7 8 8 7 7 8 10 8 8 9 9 9 10 10 10 11 12 13 13 15 15 18 17 16 16 15 15 14 13 13 12 11
3 3 1 2 3 4 4 4 5 5 6 7 7 6 7 8 7 7 7 8 9 9 9 10 12 12 14 16 17 17 16 14 12 12 13 14 13 12
2 2 2 1 1 1 2 3 5 6 7 7 7 7 7 7 7 7 7 7 8 8 9 13 15 16 18 17 16 15 12 11 11 12 13 12 12 13
3 1 2 3 4 4 5 6 7 7 7 7 7 7 7 7 8 8 9 10 10 11 13 14 16 15 13 12 11 10 10 10 11 12 13 14 16 14
2 3 3 4 6 6 8 8 9 9 9 8 8 8 8 9 10 10 11 12 12 13 13 11 9 8 9 9 9 9 10 11 13 14 16 16 15 17
3 4 5 6 6 6 7 8 9 8 8 7 7 7 7 9 10 11 11 11 11 10 10 9 5 6 9 10 10 11 13 15 15 13 13 17 19 21
3 4 5 6 8 7 7 7 7 7 7 7 7 6 6 7 7 6 6 6 6 6 9 11 10 9 10 12 13 15 14 13 12 12 17 20 21 22
4 5 7 7 7 7 7 6 6 5 6 6 6 5 5 5 5 6 7 7 8 8 6 8 11 11 6 8 9 11 12 14 16 18 20 20 22 23
4 5 6 7 6 6 6 6 5 4 5 5 5 5 5 6 7 8 9 11 11 12 12 13 14 14 14 16 16 13 14 15 19 21 22 21 20 22
5 5 6 6 6 6 5 5 4 5 6 6 6 7 8 9 11 12 12 12 13 14 13 15 18 17 19 22 24 18 16 15 16 16 19 17 15 18
5 6 7 7 7 7 7 6 6 8 9 9 10 10 11 12 14 16 16 15 15 15 15 15 17 18 19 23 26 26 25 20 15 5 12 17 20 20
7 8 9 9 9 8 8 9 9 11 12 12 13 14 15 15 14 15 16 15 17 14 11 14 15 17 20 22 24 27 25 25 21 21 20 18 18 19
8 9 10 10 10 10 10 11 12 13 14 15 16 17 16 15 15 15 16 16 17 16 12 10 14 18 20 21 24 24 23 24 23 23 20 25 22 22
9 10 11 12 12 12 13 14 15 16 17 18 18 19 18 17 17 16 15 16 18 17 16 13 15 18 21 23 21 21 21 23 21 19 20 26 29 24
12 12 13 14 14 15 15 16 16 17 18 19 20 20 19 19 19 18 16 17 19 18 17 16 17 17 21 26 28 23 20 20 24 25 24 26 28 25
13 14 14 15 16 17 17 17 18 18 19 20 20 20 20 20 20 20 19 20 20 21 21 19 17 16 21 24 29 32 26 25 25 27 26 26 26 26
15 16 16 16 17 18 18 19 20 20 19 20 20 20 20 21 22 22 22 21 22 23 25 24 21 19 21 24 29 32 31 27 23 25 25 28 29 28
16 17 17 18 18 19 20 21 21 21 20 19 20 20 20 21 22 22 23 24 23 24 26 25 23 21 23 25 29 30 31 29 25 23 23 24 25 27
19 19 18 18 18 19 20 21 22 22 21 20 19 19 20 22 23 23 24 24 25 25 26 27 24 23 24 25 27 29 28 29 29 28 25 21 20 24

GFSNE_850_spd_081.txt.gz
Wind_Speed
20 20 20 22 23 25 21 17 15 12 12 14 15 15 16 19 16 15 15 17 13 11 15 19 23 20 19 20 19 19 24 30 30 30 31 29 30 17
21 23 24 24 21 19 15 14 11 11 13 11 15 14 15 16 17 11 10 11 10 12 17 19 22 24 23 23 26 31 31 27 31 28 26 20 14 9
17 17 16 14 12 10 8 7 10 10 11 12 13 15 15 14 12 9 7 7 7 9 15 20 22 24 26 27 22 19 21 23 22 21 16 11 11 12
13 10 8 7 5 5 5 6 8 9 10 11 11 10 11 8 6 5 6 6 8 12 17 17 18 17 17 16 16 18 20 18 17 17 16 16 13 12
7 5 5 4 5 4 5 8 9 7 6 8 8 8 6 5 4 5 8 8 7 8 9 10 11 12 14 15 17 17 17 17 17 16 16 16 16 15
6 4 3 3 5 5 5 6 5 4 5 6 6 5 5 4 4 5 7 7 7 7 8 8 9 11 11 13 14 14 15 15 15 13 14 13 12 11
6 5 4 4 4 4 4 5 4 4 5 5 6 6 6 6 6 6 6 6 7 7 8 10 10 11 13 14 15 14 14 13 11 11 11 11 11 10
5 4 3 2 2 3 3 4 4 4 5 5 6 6 7 7 7 8 8 8 8 9 10 12 12 12 12 11 10 9 8 8 9 10 11 11 12 12
4 3 2 2 3 3 5 5 6 6 6 6 6 6 7 7 8 8 8 9 8 10 10 8 7 7 7 6 6 7 8 9 11 12 13 12 13 11
3 1 0 2 2 4 5 5 5 5 5 5 5 6 6 7 7 7 7 7 7 6 6 4 4 5 6 7 7 8 10 12 13 12 12 11 12 15
2 0 1 3 4 4 4 4 4 4 5 4 5 5 5 6 5 4 5 6 5 7 7 6 6 7 7 8 10 12 13 12 12 12 12 12 16 19
1 0 1 2 3 3 3 3 3 3 3 3 3 3 4 4 5 5 6 7 7 6 5 8 10 9 4 6 8 9 9 10 12 15 18 18 20 20
1 1 2 3 3 3 2 3 2 2 2 3 4 4 5 5 6 7 8 9 9 9 11 11 10 12 11 12 14 13 16 16 16 17 20 23 21 20
2 2 2 3 3 3 3 3 3 3 4 5 5 6 7 8 9 10 11 12 12 12 10 13 16 13 14 16 18 14 15 16 18 18 20 21 21 20
3 3 2 3 3 3 4 4 5 6 6 7 8 9 10 11 13 14 13 13 13 12 13 13 14 15 16 18 21 21 20 18 15 17 15 10 15 19
4 4 3 3 4 5 6 6 7 8 9 9 10 11 12 14 14 14 14 14 14 12 10 13 15 16 17 18 20 22 20 18 15 18 21 22 21 21
7 6 5 6 6 7 8 8 10 11 11 12 13 13 14 15 15 15 14 15 15 14 13 11 15 19 20 21 23 20 20 20 16 19 19 19 19 20
9 8 8 8 8 9 9 10 11 12 13 14 15 15 16 16 17 16 14 15 16 16 16 14 15 17 20 22 21 18 19 20 17 16 19 23 24 20
11 10 10 11 10 11 11 12 12 13 15 15 16 16 16 17 17 17 16 16 17 18 18 17 17 17 19 23 26 22 18 18 22 23 22 24 27 24
13 13 13 13 13 13 13 13 14 14 15 16 16 16 16 17 18 17 17 17 19 19 20 19 17 16 19 22 26 28 25 24 23 24 25 24 25 24
16 16 15 15 15 14 14 14 16 16 16 16 16 17 17 18 18 18 18 18 19 20 21 21 20 20 22 23 27 29 27 27 24 22 22 25 27 26
17 18 17 17 17 16 15 16 17 17 17 17 17 17 17 18 19 19 19 20 21 21 22 20 20 21 23 24 27 29 28 26 25 22 20 21 23 25
20 19 20 19 18 18 17 18 19 19 18 18 19 19 19 20 20 21 21 21 22 23 22 22 21 22 23 24 25 28 27 26 25 26 24 18 19 21

GFSNE_850_spd_084.txt.gz
Wind_Speed
21 22 23 21 22 21 22 20 17 14 12 14 16 15 15 18 16 15 14 12 13 15 16 14 11 13 18 17 17 15 19 23 25 27 24 26 31 32
22 23 22 23 23 23 19 15 14 13 8 12 13 14 15 15 17 16 11 9 10 11 12 13 16 16 17 19 18 18 20 21 26 27 29 28 27 23
20 20 20 18 15 14 12 11 11 10 11 11 12 12 15 15 14 12 9 8 9 8 9 10 13 16 18 21 23 24 23 24 22 23 23 21 16 11
17 17 15 12 10 10 9 7 8 9 10 12 13 10 12 12 9 7 6 6 9 11 12 14 16 20 21 22 21 19 18 16 15 15 16 17 16 17
13 11 10 9 7 6 8 8 10 11 10 10 10 11 11 7 6 6 5 7 8 10 10 12 13 14 14 15 15 14 12 13 13 14 15 17 18 17
10 10 9 9 9 8 8 7 6 6 6 7 8 8 7 6 6 5 6 7 8 8 9 10 11 10 11 11 12 12 12 12 13 13 14 15 14 15
9 8 7 7 7 7 6 6 6 6 7 7 7 7 7 6 6 7 7 7 9 9 10 11 11 11 13 13 14 15 15 15 16 15 13 11 11 10
8 7 6 6 6 7 6 6 6 6 6 6 6 6 8 7 7 7 8 7 4 9 10 11 12 12 13 12 12 12 12 12 11 11 11 12 12 11
7 6 6 6 5 5 5 5 5 5 5 4 4 6 6 6 6 6 7 7 7 10 8 6 7 7 7 7 7 6 7 9 10 11 12 13 12 13
7 7 6 5 4 4 3 3 3 2 2 2 3 4 4 4 4 4 4 4 5 5 4 3 5 5 6 6 6 8 9 11 12 12 12 14 14 14
7 7 6 5 3 2 2 1 2 3 2 2 2 3 3 3 2 2 3 3 3 5 5 3 4 5 7 8 9 11 12 11 12 14 15 16 16 15
7 6 5 4 2 2 1 1 1 2 2 2 3 3 3 3 3 3 4 4 5 5 5 6 7 6 4 7 9 10 11 11 12 13 16 17 18 20
7 6 4 3 2 2 2 2 2 2 2 2 3 4 4 5 6 7 8 8 8 8 12 11 9 10 7 10 11 13 16 17 18 19 19 20 21 23
7 6 5 4 3 3 3 3 5 4 4 5 5 6 7 8 9 10 11 12 12 12 13 14 14 11 12 14 13 11 12 15 16 18 21 21 21 23
7 7 6 5 5 5 5 5 5 6 6 7 8 9 10 11 12 14 13 13 14 12 12 12 14 14 14 15 17 18 16 15 15 14 12 18 19 18
8 8 7 7 7 7 7 7 8 8 9 10 10 11 12 13 13 13 13 14 14 13 11 12 13 15 16 17 18 19 17 16 16 17 18 20 22 26
11 11 10 10 10 10 10 10 10 11 11 12 13 13 14 15 15 14 14 14 15 14 12 12 13 15 17 18 21 19 19 20 17 18 19 20 19 20
14 13 13 13 13 12 11 11 12 12 13 14 14 15 15 16 16 15 15 15 15 15 15 14 14 14 16 19 19 18 18 20 19 15 19 23 23 20
17 15 15 15 15 14 14 13 13 14 14 15 16 16 16 17 17 16 16 15 16 16 16 17 17 16 16 16 18 23 19 17 18 21 20 22 25 25
19 18 18 17 17 17 15 15 15 15 15 16 16 17 17 18 18 17 16 16 16 16 18 18 18 16 18 18 20 25 25 23 22 23 23 23 26 25
21 21 20 20 19 19 18 18 17 17 16 16 17 18 18 19 20 19 19 18 18 18 19 18 16 18 21 22 25 26 23 23 24 22 20 22 26 25
24 23 22 22 22 21 20 20 19 19 17 17 18 19 19 20 20 20 21 20 19 19 21 20 20 21 22 22 26 27 25 22 22 22 21 20 23 26
26 25 24 24 24 24 23 23 21 20 18 18 19 20 21 22 21 22 22 22 22 22 22 22 21 21 22 23 24 26 25 22 21 22 22 19 19 22

GFSNE_850_spd_090.txt.gz
Wind_Speed
19 17 17 19 22 21 23 22 19 14 14 20 20 20 18 15 14 14 13 11 9 9 9 6 1 2 2 2 8 19 16 15 10 10 12 17 14 17
18 17 18 19 20 21 21 21 19 19 19 18 17 16 15 13 11 12 10 9 8 6 4 3 2 4 5 5 11 13 12 11 13 15 18 15 15 20
17 18 19 19 21 20 21 21 21 19 17 18 18 17 12 10 9 8 7 6 5 7 4 3 3 3 7 11 13 14 15 16 16 16 16 15 14 14
17 16 17 17 17 15 15 15 14 13 14 15 17 12 9 9 9 7 5 5 4 5 5 8 7 7 9 11 12 14 15 16 14 13 14 14 13 13
17 16 17 16 15 15 13 12 10 10 11 12 11 9 8 8 7 6 6 6 5 7 8 7 8 9 10 11 10 11 12 12 13 13 13 13 12 12
18 17 14 14 11 11 11 10 10 10 10 10 9 7 7 7 6 5 6 5 6 7 8 8 8 8 9 11 12 13 13 14 14 15 14 14 14 14
13 12 10 11 11 12 11 10 11 10 10 10 9 8 8 7 6 7 7 8 6 7 7 8 7 8 10 11 12 11 12 13 13 13 13 13 13 13
10 10 11 11 10 10 10 9 10 10 10 9 8 8 8 7 7 7 7 7 7 5 3 7 6 7 7 7 8 8 9 10 10 10 9 8 9 11
9 9 8 9 10 10 10 9 10 10 10 9 8 9 8 6 7 7 6 4 5 5 5 4 3 4 4 4 5 5 5 5 5 6 6 7 7 7
9 9 10 9 9 9 7 8 8 6 5 6 6 6 6 6 5 4 4 3 3 3 3 4 3 4 5 6 5 6 6 5 6 7 8 8 10 11
9 10 9 9 9 8 7 8 7 5 5 5 4 4 3 3 3 3 3 3 4 4 4 5 4 4 6 8 8 7 7 8 9 10 10 11 12 13
10 10 9 7 6 6 8 8 7 5 5 4 4 4 3 3 4 3 3 3 4 6 3 5 6 8 5 6 6 6 7 8 8 10 11 11 12 13
10 10 9 8 7 7 8 8 7 6 5 5 5 4 4 4 4 5 6 6 7 9 11 10 10 10 8 12 10 10 11 12 14 14 14 15 16 17
11 10 9 8 8 8 9 9 8 6 6 6 6 5 5 5 5 7 9 10 10 10 13 13 13 12 13 14 13 11 11 11 13 13 14 15 16 16
11 10 9 9 9 9 9 9 9 8 8 8 8 7 7 8 9 10 12 13 13 12 12 14 14 13 14 15 17 16 15 12 13 13 10 12 15 15
10 10 10 10 10 10 10 10 10 10 10 10 10 10 9 10 11 13 14 14 14 12 12 13 13 14 15 16 18 19 17 14 14 15 15 16 16 17
12 12 12 12 12 12 12 12 12 12 12 12 12 12 12 12 12 14 14 14 15 14 13 13 13 14 15 17 19 18 17 17 15 16 17 18 16 16
15 15 15 15 15 14 14 13 14 13 12 14 14 13 13 14 14 15 15 15 15 15 16 14 13 15 16 18 16 16 15 15 15 17 15 19 20 16
20 18 18 17 16 15 16 16 15 14 15 15 15 15 15 15 15 16 15 16 17 15 16 15 14 14 17 19 19 16 18 14 14 17 19 21 24 21
23 21 20 19 19 18 17 17 17 17 18 17 17 17 18 17 17 17 16 17 17 17 18 17 16 16 18 19 21 18 18 21 21 22 23 21 22 23
24 24 22 21 21 20 20 20 20 20 20 21 20 20 20 20 20 18 17 18 19 20 20 18 14 16 18 18 24 23 20 22 22 22 24 25 25 25
27 26 25 24 23 22 22 23 24 24 24 23 22 22 22 22 22 20 19 19 19 21 22 20 18 19 21 23 26 26 24 23 20 19 21 23 24 26
29 29 28 27 25 25 25 26 26 26 25 25 25 25 24 25 23 22 21 20 21 22 22 21 20 22 24 26 25 26 26 24 23 21 19 16 19 22

GFSNE_850_spd_093.txt.gz
Wind_Speed
21 20 19 19 20 22 23 19 22 19 20 20 20 22 18 15 14 14 14 13 10 7 7 3 2 1 3 5 10 18 16 16 16 17 14 12 12 14
20 19 19 18 20 23 22 20 20 20 19 17 18 18 14 13 14 13 11 9 6 3 1 1 4 5 6 11 12 14 14 15 13 13 14 15 13 14
20 18 18 18 18 20 22 21 22 24 21 20 18 15 14 13 10 9 7 5 4 4 3 3 3 9 9 10 12 12 12 12 14 14 14 14 14 12
19 18 17 17 19 20 19 21 23 20 18 16 18 15 14 10 9 6 4 5 4 5 4 5 7 7 7 10 13 15 15 14 13 13 12 12 13 11
19 19 19 18 18 17 17 15 15 14 14 14 14 12 10 9 6 6 6 6 5 5 5 6 6 7 8 9 9 10 11 10 10 12 13 12 13 12
20 19 19 18 17 16 15 13 13 12 11 11 10 9 9 8 7 7 7 6 6 7 6 7 7 7 8 9 9 10 10 12 13 13 13 13 13 13
15 15 16 15 13 13 13 12 12 12 12 12 9 9 8 9 8 8 8 8 8 8 8 7 7 7 7 8 9 10 10 12 12 12 13 13 13 13
12 13 13 12 12 12 12 12 12 12 11 11 10 10 9 10 8 9 9 9 8 7 5 6 6 5 5 5 5 5 7 8 8 8 8 8 8 8
11 10 11 11 11 12 12 12 13 13 12 10 9 9 9 8 7 7 7 8 7 7 6 4 3 3 2 2 2 2 2 2 3 4 4 4 5 6
10 10 10 9 10 10 11 11 11 10 9 9 9 9 8 7 6 6 6 6 5 5 4 3 3 3 4 3 3 4 3 4 5 5 5 6 7 8
10 10 9 9 10 10 10 10 9 9 8 9 9 8 6 5 5 5 5 4 4 5 5 4 3 3 5 7 7 6 5 6 8 8 9 9 10 12
10 10 9 9 9 10 10 10 10 9 8 7 7 7 6 5 5 5 4 4 4 4 3 3 3 4 4 6 6 4 5 7 8 9 10 11 12 13
11 11 11 10 10 9 10 10 9 10 9 8 8 7 6 5 4 4 5 5 6 7 8 8 6 7 8 8 8 9 10 11 11 12 13 14 15 16
11 11 11 10 10 9 9 10 9 10 10 10 9 8 7 6 6 6 6 6 8 10 11 10 10 10 10 11 9 9 8 10 12 13 14 14 14 15
10 11 10 10 10 10 10 10 11 11 11 11 10 9 8 8 7 7 7 8 10 10 12 12 11 11 12 13 14 10 11 9 12 13 11 11 12 14
10 11 11 12 11 12 12 12 12 12 12 12 11 11 10 9 8 8 8 10 10 11 12 13 12 12 13 14 16 14 12 11 9 12 15 14 15 16
11 13 14 13 13 13 13 13 13 14 14 13 14 13 11 11 10 10 9 10 10 9 9 11 12 13 14 15 17 14 14 13 12 13 15 14 14 15
17 17 16 15 15 14 15 15 15 15 14 15 15 15 14 14 13 13 12 11 10 9 10 10 11 13 14 15 14 12 12 12 12 15 15 15 14 14
20 18 17 17 16 16 17 17 17 15 16 17 17 16 16 16 16 15 14 14 13 11 10 12 12 12 14 17 15 13 13 12 13 14 15 18 21 19
22 20 19 18 18 18 18 18 17 18 19 18 18 18 18 18 19 19 17 17 15 15 14 14 14 14 15 15 19 18 16 16 17 19 20 21 23 21
23 23 22 20 19 20 19 19 20 20 20 21 21 20 20 21 21 21 20 19 18 19 17 14 11 14 17 19 22 20 18 18 19 20 21 24 24 24
25 26 25 24 22 22 22 22 22 23 24 24 23 23 22 23 23 23 23 22 21 20 18 15 15 17 20 22 24 23 21 21 19 19 19 21 23 23
27 27 27 26 25 24 24 25 25 25 25 25 25 25 24 25 25 24 25 24 23 21 19 18 18 20 22 23 24 24 23 22 22 21 20 17 17 20

GFSNE_850_spd_096.txt.gz
Wind_Speed
24 24 24 24 23 23 23 22 24 24 25 19 25 18 20 17 14 13 13 13 11 9 6 5 2 1 2 3 4 9 15 23 16 19 14 19 16 13
24 24 23 22 22 21 21 22 22 22 23 17 21 21 19 16 13 13 11 11 7 6 4 2 5 6 8 10 10 16 18 12 10 15 15 14 12 14
24 24 22 22 20 20 21 20 20 22 23 21 21 20 19 15 13 13 10 9 7 6 5 5 6 9 10 9 11 12 12 10 13 15 13 16 15 15
23 23 21 20 20 20 20 21 21 22 22 22 23 19 17 16 14 11 10 9 6 6 5 4 6 8 9 13 15 16 16 14 14 15 15 15 13 13
22 22 21 21 21 20 20 20 19 20 22 21 19 18 17 15 13 12 10 9 7 7 6 7 6 6 9 10 10 12 14 15 15 14 12 12 14 13
21 21 22 22 21 20 19 18 17 16 15 16 15 15 15 14 13 11 10 9 7 7 7 7 7 8 8 9 10 10 11 12 13 13 12 14 15 14
20 19 18 18 18 17 16 15 14 14 14 13 13 13 13 14 13 11 10 9 8 7 8 8 7 7 8 9 9 10 11 12 13 14 14 14 14 13
16 15 15 15 14 12 12 13 13 13 14 14 13 12 13 14 13 11 12 10 8 9 8 7 6 6 6 6 7 8 9 9 10 10 10 10 10 10
13 13 13 12 12 11 13 13 14 14 13 12 12 11 11 10 11 11 11 9 9 8 7 7 6 5 5 3 4 5 5 5 6 6 6 6 6 5
12 11 10 10 11 10 10 12 13 13 14 13 13 11 10 10 10 10 10 9 9 8 7 6 7 6 6 5 5 5 6 6 6 5 5 6 6 7
11 11 11 11 11 12 11 11 12 12 12 12 11 10 10 9 9 8 8 8 9 8 7 6 8 7 7 7 8 8 8 8 8 8 8 9 9 11
10 10 11 11 11 11 11 12 11 10 9 9 9 8 8 8 8 8 8 7 7 6 7 7 7 7 6 9 9 9 9 10 10 10 11 11 13 14
11 11 12 11 11 10 10 10 11 10 9 9 9 8 8 8 8 8 7 7 7 7 5 7 7 8 9 7 8 10 11 12 11 12 13 14 15 15
12 12 12 12 11 11 10 11 12 11 11 11 10 10 9 8 8 8 8 8 8 8 8 9 11 11 12 11 12 12 11 11 12 13 13 14 15 15
12 12 13 13 12 12 11 12 13 11 12 12 11 10 9 11 11 10 9 9 9 10 10 10 11 13 14 14 13 11 11 11 13 13 15 15 14 14
11 12 13 13 13 12 12 13 13 13 13 13 12 13 13 13 12 12 11 10 9 9 9 10 10 12 14 14 15 12 12 10 8 11 15 15 16 17
13 15 16 15 14 14 14 15 15 15 15 14 15 15 14 14 14 13 13 12 10 9 9 9 10 11 13 14 16 13 13 13 13 16 17 15 15 17
19 19 17 16 16 15 16 16 16 16 16 16 17 17 17 16 15 16 16 15 13 11 10 10 11 12 14 13 14 11 11 11 12 15 16 16 15 15
22 19 19 19 18 17 17 18 18 18 17 19 20 19 19 18 19 19 18 18 17 14 13 13 13 12 14 17 13 13 14 11 11 13 14 16 19 18
23 21 19 18 18 19 19 20 19 19 21 22 22 21 21 21 21 21 21 21 20 17 17 16 16 14 16 15 17 16 13 15 16 17 16 19 21 20
24 23 21 20 20 20 20 21 21 22 23 24 24 24 23 23 24 23 23 22 22 22 22 19 12 15 18 18 22 19 14 15 17 18 19 21 23 23
27 26 25 24 23 22 22 23 24 24 26 26 26 26 25 25 25 25 26 25 25 25 23 19 16 19 22 21 22 21 20 19 17 17 18 20 22 22
28 29 28 28 27 26 25 26 26 26 27 27 28 27 27 28 26 26 27 26 25 25 25 24 22 22 23 23 22 22 22 22 21 21 19 18 21 23

GFSNE_850_spd_099.txt.gz
Wind_Speed
23 23 24 23 25 26 25 23 25 25 23 25 27 24 21 18 17 15 17 15 14 13 10 8 2 2 1 2 4 6 11 17 26 20 21 21 22 15
24 24 24 23 24 24 22 21 23 24 27 22 20 21 19 18 15 17 18 13 12 7 5 4 5 4 5 7 8 11 18 16 17 21 18 15 16 15
23 23 24 24 23 23 19 18 20 24 26 25 21 19 17 19 17 16 16 11 9 8 7 7 7 9 10 9 9 13 11 10 9 10 12 12 12 13
24 25 24 24 23 21 20 20 21 22 20 21 21 17 18 19 17 17 14 12 10 10 9 8 8 11 17 15 12 12 10 9 11 12 12 13 14 15
24 24 23 24 23 22 21 21 21 24 23 24 24 23 22 19 17 17 14 12 11 10 8 9 8 6 8 12 15 16 18 18 18 17 16 14 14 13
23 22 22 23 23 22 23 22 20 20 20 21 20 19 19 18 17 15 14 13 11 11 10 9 9 8 9 10 12 13 14 15 16 16 15 14 14 13
22 21 21 19 17 18 19 18 17 17 17 17 18 18 18 18 17 16 14 13 13 11 10 9 8 9 8 9 11 12 13 14 14 14 15 15 14 14
18 17 15 15 15 16 16 13 15 14 14 15 16 15 14 14 15 16 15 15 12 11 11 8 7 8 7 7 8 9 11 11 12 13 13 13 13 14
14 13 13 14 13 13 12 11 13 13 13 14 14 13 12 12 14 14 14 13 12 9 7 7 7 7 6 6 6 7 7 7 7 8 8 8 7 7
11 11 12 11 11 12 12 12 13 13 13 14 13 13 12 12 13 12 12 12 11 11 9 8 7 7 7 7 7 7 7 7 6 6 6 7 7 8
10 11 11 12 12 11 11 11 11 12 13 13 13 13 13 12 12 12 12 12 11 10 9 8 8 8 8 9 10 9 9 8 9 9 8 9 10 10
11 11 12 12 12 12 11 12 11 9 9 9 10 10 11 11 11 11 11 10 10 8 9 9 7 7 5 11 12 12 11 11 10 10 10 11 13 13
10 10 11 12 12 12 10 10 11 11 10 9 9 9 10 10 10 10 10 10 9 9 5 8 7 9 10 9 7 10 10 10 12 12 13 14 14 15
11 11 12 13 13 11 12 10 12 12 11 11 10 10 10 10 10 11 11 10 10 9 8 9 11 10 12 13 12 13 14 14 15 15 15 15 16 16
12 13 14 14 14 12 13 12 13 12 12 13 10 9 9 12 12 11 11 10 10 10 10 10 11 12 13 13 14 13 13 14 15 15 17 16 16 17
12 12 14 15 14 14 13 13 14 12 14 12 11 13 15 14 13 13 13 13 12 11 11 11 12 12 13 14 14 13 15 12 10 12 15 15 14 16
15 16 16 16 15 14 14 15 15 15 14 13 15 16 15 16 16 15 16 15 14 12 12 12 12 13 14 15 16 12 14 15 15 17 19 18 16 18
20 20 18 16 16 15 15 15 15 16 16 16 17 17 18 18 18 18 19 19 17 15 14 14 14 14 15 13 14 12 14 13 14 15 16 18 16 16
22 21 18 19 18 17 17 17 18 17 17 19 20 20 20 20 21 22 22 22 21 18 16 16 17 17 17 18 14 14 13 14 14 14 14 17 20 17
23 22 20 18 18 18 18 19 19 19 21 22 23 23 23 23 24 25 24 24 23 21 20 20 21 19 18 17 18 17 14 13 14 16 17 19 21 22
24 24 23 21 20 19 19 20 21 21 22 23 25 26 25 26 27 26 26 25 24 25 25 24 19 16 20 22 23 19 13 15 16 17 18 21 22 23
26 27 26 27 26 24 23 23 24 24 25 26 27 27 27 28 29 28 28 28 27 27 25 22 19 23 26 26 25 23 20 17 17 20 21 20 22 21
27 27 28 29 31 30 27 28 29 27 27 28 28 29 29 30 30 30 30 30 29 27 26 25 24 25 28 29 27 25 24 23 20 21 22 20 23 24

GFSNE_850_spd_102.txt.gz
Wind_Speed
19 19 19 19 21 21 20 20 21 20 18 19 22 21 22 24 19 18 18 20 24 19 16 11 7 4 3 4 6 4 9 13 19 22 23 19 20 18
20 21 21 20 19 20 21 20 18 21 22 17 18 21 19 21 18 15 14 20 20 16 7 5 3 3 3 5 4 10 15 20 23 23 21 21 17 20
22 22 20 21 20 19 19 19 17 19 21 21 20 22 21 22 20 16 16 17 19 13 8 8 7 7 8 6 9 12 15 22 23 20 22 20 17 15
20 21 21 22 21 20 19 18 17 19 19 20 18 17 17 17 19 16 15 16 16 12 9 8 8 11 13 12 10 9 8 9 9 11 11 11 12 11
22 22 22 21 21 21 20 19 18 18 20 21 21 20 17 20 20 18 15 17 15 12 10 10 7 7 10 17 16 15 14 12 11 10 11 12 13 13
21 21 20 21 20 21 20 20 20 19 19 20 20 20 20 20 19 18 17 15 14 11 11 10 9 9 8 10 14 15 17 19 18 16 17 16 16 15
21 20 19 19 16 15 15 17 17 16 17 17 19 19 17 19 19 17 17 15 14 13 12 11 10 10 10 11 13 15 15 15 15 16 16 16 15 14
19 18 17 13 13 14 14 14 13 11 12 15 17 17 16 16 17 17 17 16 14 13 13 12 11 11 10 10 12 13 14 15 15 15 15 16 16 16
17 15 13 11 12 13 12 11 9 10 12 13 14 13 13 12 12 14 15 14 14 12 8 11 10 10 9 9 8 8 9 10 10 10 11 11 11 11
12 11 10 10 11 10 9 9 9 10 11 12 13 12 13 11 12 12 12 13 13 13 11 10 9 9 9 8 7 6 7 7 7 7 7 7 7 7
10 10 10 10 10 10 9 8 8 10 11 11 12 13 13 12 12 13 13 13 13 11 10 10 9 10 9 9 10 8 8 7 8 8 8 8 9 8
9 10 10 11 11 11 9 10 10 9 8 9 9 10 11 12 12 12 13 11 11 8 10 10 8 9 7 12 11 10 10 10 9 9 9 10 11 11
9 9 9 10 10 10 9 9 9 10 9 8 7 8 10 10 11 11 11 11 11 10 6 10 7 9 10 6 5 8 10 11 11 11 12 13 13 13
10 9 10 11 11 10 10 9 9 11 10 10 9 9 8 10 10 10 10 10 10 10 10 9 10 9 11 11 11 10 10 12 13 14 15 16 16 15
10 11 12 12 11 11 10 10 11 10 10 10 9 8 9 10 11 11 11 11 11 10 11 11 12 12 12 14 13 12 12 14 15 15 15 16 16 16
12 11 12 13 12 12 11 10 11 10 10 10 10 11 14 14 12 12 12 13 12 12 12 12 13 13 13 14 14 13 14 12 10 13 17 18 17 16
15 15 14 13 11 11 10 11 11 11 12 11 11 14 14 14 14 14 15 15 15 13 14 14 13 13 13 13 13 11 13 15 16 18 19 19 17 17
18 17 16 14 13 12 12 12 12 13 12 13 15 16 15 16 17 17 18 18 17 16 16 16 16 16 16 14 13 10 12 13 15 18 19 20 16 17
20 18 16 15 14 13 14 15 14 13 14 16 16 16 17 18 20 21 21 21 21 19 17 19 19 19 19 18 15 14 12 12 14 16 17 19 18 14
20 19 18 15 15 15 15 15 15 15 17 18 19 19 20 22 23 24 24 24 23 22 21 21 24 23 21 19 18 20 15 12 12 13 14 18 21 20
19 20 19 18 18 17 17 17 18 18 19 20 22 22 22 23 25 25 26 25 25 26 26 25 22 20 22 24 26 24 18 14 16 16 16 19 21 23
19 20 21 21 22 22 22 23 23 23 23 24 24 25 25 25 26 26 27 27 28 28 26 23 21 22 27 29 29 28 25 18 19 19 20 20 21 21
20 20 21 22 23 24 25 26 27 27 26 25 26 26 27 29 27 27 28 28 29 28 27 27 26 26 28 29 29 29 28 24 22 22 23 23 23 24

GFSNE_850_spd_105.txt.gz
Wind_Speed
14 14 13 15 17 18 17 17 17 9 12 16 15 15 18 22 18 19 20 20 15 19 23 18 12 8 4 6 6 2 8 13 17 19 24 25 22 20
13 13 17 19 19 19 18 18 18 17 17 14 15 16 15 18 17 17 17 17 17 19 20 13 6 3 2 3 2 2 8 11 13 21 26 25 25 21
18 20 18 18 18 18 18 18 17 18 19 18 17 19 17 17 18 19 17 17 14 17 18 10 9 7 7 5 8 17 20 26 27 27 25 25 21 20
18 18 17 17 17 17 17 17 17 16 18 20 20 16 15 18 19 17 16 16 15 15 14 9 8 10 13 10 9 8 16 19 21 23 26 26 23 19
17 16 17 17 17 18 18 18 17 17 18 18 18 18 17 18 19 18 16 16 15 15 13 10 10 9 10 16 13 10 8 8 7 7 10 11 11 12
18 18 18 18 18 18 18 19 18 17 17 18 20 19 18 19 20 19 17 16 16 15 11 9 10 8 6 8 16 18 15 14 11 11 11 11 10 11
17 17 17 17 18 16 15 14 15 16 15 18 18 18 18 18 18 18 18 16 15 14 11 10 10 9 9 10 11 15 18 19 17 17 16 15 16 16
17 17 16 14 12 10 11 12 13 13 11 13 16 18 17 16 16 16 15 15 15 13 13 12 11 10 10 11 12 14 15 15 16 16 16 16 16 17
17 15 12 9 8 10 11 11 10 8 9 11 12 13 14 13 13 14 16 15 15 11 7 11 12 11 10 10 10 11 12 14 15 16 16 16 17 17
13 9 8 8 8 9 9 10 9 9 9 10 11 12 13 13 12 11 10 13 14 13 11 10 9 11 10 10 8 8 8 9 10 10 11 12 12 11
9 8 8 8 9 9 9 9 9 9 10 11 11 12 13 13 12 12 14 14 13 12 12 11 9 10 11 10 9 8 8 9 9 9 10 10 10 9
9 8 8 9 10 10 10 10 9 10 10 9 10 11 12 12 12 11 13 12 12 10 11 11 9 9 8 11 11 10 9 9 9 10 11 11 10 10
10 8 9 10 10 11 11 10 10 10 10 9 8 7 8 9 10 11 12 12 12 11 6 11 8 9 9 3 7 10 11 12 12 12 12 12 12 12
9 8 8 9 10 10 11 9 10 9 10 9 8 7 7 8 9 10 9 10 11 11 10 8 9 9 10 10 9 9 11 11 12 12 13 14 15 14
9 9 10 11 11 11 11 10 10 9 9 9 9 9 9 9 9 8 9 11 10 10 11 11 11 11 11 12 12 11 11 12 14 16 16 17 17 17
11 11 11 10 9 10 11 11 10 9 9 9 10 11 10 12 11 11 11 10 11 11 11 12 12 12 13 13 14 13 13 12 9 13 16 17 17 17
14 14 13 11 10 9 10 10 11 10 8 9 10 11 12 12 11 12 13 13 14 12 13 13 14 14 14 14 13 13 13 14 14 17 17 17 17 17
15 15 14 13 12 11 10 11 11 10 9 11 12 13 14 13 15 18 17 16 16 15 15 16 16 16 16 15 14 13 14 13 14 17 17 18 17 18
16 14 13 13 12 12 12 13 12 12 13 14 14 14 15 16 18 19 19 19 20 19 18 19 19 19 19 19 15 13 13 13 15 16 16 17 15 15
16 15 14 13 12 12 13 13 13 14 17 17 17 17 17 18 20 20 21 21 21 21 21 22 25 23 22 21 18 18 16 14 14 14 16 17 16 16
14 16 15 14 14 14 14 15 16 16 17 18 19 19 19 20 21 22 22 23 23 25 26 26 23 19 22 24 27 25 22 19 17 17 18 19 19 20
16 16 16 17 17 18 18 18 20 20 21 22 22 22 22 23 24 23 24 25 26 27 26 23 23 22 26 28 28 26 26 22 21 20 23 22 21 19
15 15 16 16 17 18 19 20 21 22 23 24 25 25 24 25 24 25 27 27 27 27 26 25 26 26 27 28 27 27 28 26 23 26 27 25 24 22

GFSNE_850_spd_108.txt.gz
Wind_Speed
18 17 17 17 15 15 17 18 16 10 12 11 13 16 17 19 18 20 19 19 19 21 17 22 21 15 10 6 10 11 8 11 15 23 18 30 29 26
18 17 15 15 17 18 19 18 18 18 14 14 17 16 17 18 15 18 19 19 20 17 18 20 22 10 5 2 4 7 6 9 14 19 18 27 27 22
15 15 17 19 18 18 19 18 18 18 20 22 21 18 16 19 19 19 20 19 18 15 16 18 18 9 7 5 0 4 5 10 11 16 23 23 27 24
16 17 17 18 18 19 20 19 19 19 20 20 20 17 18 19 17 19 18 19 15 13 15 16 17 11 10 9 8 7 17 18 28 30 30 28 21 22
16 16 18 17 18 19 19 19 19 20 20 19 20 18 16 17 18 18 16 16 15 13 13 16 17 10 10 13 12 7 5 11 19 25 26 26 23 22
17 16 16 17 17 18 18 18 19 20 20 19 19 19 18 17 18 18 17 16 16 14 15 15 16 7 6 8 16 13 10 8 8 8 7 8 9 9
15 16 18 19 20 19 18 16 16 16 16 16 19 19 18 18 17 17 17 17 16 15 14 14 12 9 8 6 9 16 15 13 11 9 8 8 9 10
17 19 20 20 18 16 12 11 13 14 15 15 14 16 16 15 15 15 15 17 16 14 14 15 12 11 10 9 10 12 15 17 16 14 14 14 15 15
16 17 18 16 13 12 10 11 11 12 11 10 10 11 13 13 13 14 15 15 15 13 9 15 13 13 11 10 10 11 13 15 16 17 16 15 15 15
14 14 13 12 11 10 10 10 10 10 10 10 11 11 12 12 12 13 12 14 15 15 14 12 11 11 10 10 9 8 9 11 12 13 13 15 16 16
13 12 11 11 10 10 10 11 10 9 9 10 11 12 12 12 13 13 13 14 16 16 15 13 11 11 10 10 9 8 7 8 8 9 10 11 10 10
12 11 10 11 10 10 11 11 10 10 10 10 10 10 12 12 13 13 13 13 15 11 13 14 11 10 8 11 10 10 10 8 9 10 10 10 10 11
11 10 10 11 11 11 11 11 11 10 10 10 9 8 9 10 12 13 13 13 13 14 7 13 11 11 9 4 11 12 11 11 11 11 11 12 12 13
9 9 9 9 9 11 11 12 11 10 9 10 9 9 8 9 10 11 12 12 13 13 12 8 12 12 12 9 7 8 10 11 12 12 13 14 14 14
10 10 10 10 10 11 11 10 10 9 9 9 10 10 9 9 9 9 10 11 12 12 13 12 12 10 11 12 9 9 10 10 12 13 14 15 16 17
11 11 12 11 9 9 11 11 10 9 9 10 10 11 11 11 11 11 11 11 11 11 12 13 12 13 14 14 14 13 12 10 9 12 15 17 18 18
11 12 13 11 10 10 10 11 11 10 10 10 11 12 12 12 12 12 12 13 14 13 13 13 14 14 15 15 15 14 14 15 14 15 15 15 16 16
12 13 13 13 13 12 12 12 12 11 11 12 12 12 13 13 14 16 17 16 15 15 15 15 15 16 16 15 15 15 16 15 15 16 16 17 16 17
12 12 13 13 13 13 13 14 13 12 13 14 14 14 14 15 17 17 17 17 18 19 18 18 18 19 18 18 17 14 15 17 18 18 17 17 15 15
13 13 13 14 13 14 14 14 14 14 16 16 16 16 16 17 18 19 20 20 20 20 21 22 24 22 19 21 20 19 19 19 20 20 19 18 17 17
13 13 13 14 15 15 15 16 16 16 16 17 17 17 17 18 20 21 22 22 22 23 25 25 22 18 20 24 27 26 24 22 22 21 21 21 21 20
15 16 16 16 16 16 17 18 19 19 20 21 21 21 20 21 22 22 23 24 24 25 24 23 23 22 26 29 30 27 26 25 23 24 24 23 22 20
18 17 17 17 17 17 17 17 18 19 20 22 23 23 24 25 25 26 27 27 27 27 26 26 26 27 27 29 29 28 27 28 25 26 29 27 26 26

GFSNE_850_spd_111.txt.gz
Wind_Speed
23 22 20 19 17 18 17 17 16 12 11 11 13 17 16 17 18 18 18 18 16 19 18 19 19 21 21 14 12 15 15 11 12 18 23 27 29 28
19 18 17 18 18 17 18 18 18 19 14 13 14 19 19 20 20 17 16 19 17 18 19 17 17 21 19 12 11 14 12 7 9 14 20 24 26 33
18 18 18 17 17 18 18 18 18 20 22 21 23 23 19 20 18 19 20 19 19 19 20 16 18 22 17 11 8 10 7 7 9 14 18 18 28 32
17 16 16 18 18 18 19 19 19 19 19 19 21 21 19 18 19 21 20 20 18 17 15 15 19 24 14 11 9 4 8 3 8 13 16 21 23 18
15 17 17 17 17 18 19 18 19 18 19 19 21 21 18 19 18 19 19 18 16 15 14 15 19 19 9 11 11 5 7 19 26 20 27 26 23 21
15 16 17 17 18 20 20 20 20 19 18 17 17 20 18 17 18 19 19 17 16 15 14 15 17 15 7 7 13 10 6 3 9 15 20 22 20 19
14 15 16 18 19 20 20 18 18 16 14 17 17 18 17 18 18 18 17 17 16 15 15 16 15 12 8 6 8 12 10 7 5 5 5 6 7 8
15 15 17 18 19 19 18 16 17 15 15 16 16 15 14 17 16 15 15 15 16 15 15 15 13 13 9 8 8 10 11 12 9 8 7 7 8 9
14 15 17 17 18 18 15 13 13 13 13 13 13 11 13 13 14 14 14 14 15 13 10 12 13 13 11 9 9 10 12 13 15 15 14 12 12 13
13 14 15 17 16 15 14 13 14 11 11 12 12 12 13 12 13 13 12 12 13 13 13 13 11 12 10 10 9 8 10 12 14 15 15 15 14 14
13 14 16 16 14 12 12 14 13 11 11 11 12 12 13 13 13 13 13 14 14 13 14 14 13 12 10 9 9 7 6 8 8 10 12 12 13 14
14 15 16 14 12 12 12 14 13 11 12 11 11 11 12 12 13 14 14 12 13 11 11 15 13 8 6 11 9 8 8 7 7 8 10 9 10 10
14 16 14 12 13 12 12 13 12 12 11 11 11 10 10 10 12 14 14 13 13 14 7 7 10 11 9 2 10 11 8 8 8 9 9 9 10 11
12 13 11 11 14 12 11 12 11 11 11 11 11 10 9 9 9 11 12 13 12 13 12 9 11 8 11 10 6 11 10 10 11 10 11 12 13 14
12 12 12 12 11 10 10 11 11 10 11 10 10 10 10 9 9 10 11 12 11 12 12 12 10 10 10 12 10 8 8 10 11 12 12 13 13 15
14 14 13 12 11 10 10 11 11 10 10 10 10 11 10 10 10 10 10 10 10 10 11 12 11 12 13 13 13 12 10 8 8 12 13 14 15 16
13 14 14 12 11 11 10 10 11 10 11 11 11 11 11 11 11 11 12 11 11 10 11 10 11 13 14 15 15 14 14 14 13 14 13 13 13 14
15 14 13 12 12 12 12 12 12 11 11 11 11 11 11 11 12 12 13 13 13 12 12 12 13 15 16 16 16 15 16 15 15 15 16 16 14 13
16 14 12 13 13 13 14 13 13 12 12 13 12 12 12 13 14 14 14 15 15 15 16 16 16 17 17 17 17 15 15 16 18 18 18 18 15 14
14 11 10 12 13 14 14 14 13 14 14 14 14 14 14 14 16 16 16 17 16 16 18 19 20 19 18 19 20 19 17 17 18 18 19 18 19 18
14 12 11 11 12 14 15 15 15 15 15 16 16 16 16 16 18 18 18 18 18 19 21 22 20 17 18 22 26 26 22 21 21 20 20 21 21 22
17 16 15 14 15 15 15 16 17 18 18 18 18 18 18 19 20 20 20 21 21 22 22 21 21 22 23 25 27 26 26 23 22 23 24 26 26 22
18 18 19 18 18 18 18 17 17 17 17 18 19 20 20 21 22 23 23 24 25 25 25 25 24 25 25 26 26 26 27 27 27 25 27 28 27 27

GFSNE_850_spd_114.txt.gz
Wind_Speed
19 21 29 27 22 21 18 16 16 13 12 9 15 17 20 19 19 19 19 15 14 16 18 17 17 19 21 24 24 17 22 21 16 14 19 26 28 24
23 22 20 20 18 17 15 16 17 16 15 14 17 18 20 23 25 20 17 13 17 21 18 17 16 19 19 25 20 15 21 16 11 11 13 22 25 27
20 19 19 18 16 16 16 17 18 18 20 21 22 23 21 21 19 17 15 17 17 19 18 16 17 16 21 27 14 10 15 14 8 10 15 19 24 25
19 20 17 16 15 16 18 18 18 19 21 21 20 22 20 21 21 15 17 18 16 17 16 15 15 16 24 20 9 6 11 6 5 8 10 16 23 20
18 16 16 15 17 18 19 20 20 20 22 20 17 19 21 18 17 18 17 18 16 15 14 15 16 17 22 15 8 6 5 11 4 6 11 15 29 23
15 15 15 16 18 19 19 19 20 21 20 17 15 18 20 19 17 17 16 17 15 14 14 15 16 16 18 12 7 7 4 5 14 19 18 23 23 24
15 15 16 16 17 19 20 21 21 21 19 17 17 18 18 17 15 14 16 16 14 13 14 16 16 15 14 10 8 7 8 5 3 9 14 15 20 23
15 15 15 15 16 19 20 20 18 18 17 15 14 13 14 13 11 12 14 13 13 13 14 16 15 13 13 10 8 7 6 10 8 6 4 3 5 8
13 13 14 14 16 17 16 16 14 13 13 12 12 11 10 11 10 11 11 12 13 14 15 13 11 13 13 11 10 9 8 8 12 11 11 12 11 10
13 13 14 15 15 16 15 14 13 12 12 11 12 11 10 11 11 11 10 11 14 13 13 13 12 13 11 10 10 10 10 9 10 12 14 15 16 15
13 13 14 14 14 15 13 13 13 11 10 10 10 12 10 11 12 12 11 13 15 14 14 13 14 14 12 9 9 8 9 9 9 12 11 12 13 14
13 12 14 14 12 11 11 12 13 11 10 11 11 13 10 11 12 13 12 14 14 13 14 16 14 12 6 10 10 9 8 7 9 8 9 10 11 12
12 12 12 11 10 10 10 11 11 10 10 11 11 12 11 10 10 12 14 15 14 15 8 6 9 10 11 5 8 10 10 9 7 8 8 9 9 9
11 10 9 8 8 10 10 10 9 11 12 11 11 12 12 10 9 10 13 13 13 14 13 11 10 8 10 10 6 7 10 10 9 8 9 10 11 11
11 11 8 7 8 9 8 9 9 11 12 12 12 12 11 10 10 10 11 11 12 13 13 12 11 10 9 11 8 6 7 9 11 10 10 9 10 11
12 11 11 10 9 9 10 10 10 10 11 11 12 12 10 11 11 10 10 10 11 11 11 10 12 11 12 10 9 9 10 7 6 10 11 12 12 13
13 14 13 11 9 10 11 10 10 11 12 11 12 10 10 11 11 10 10 10 10 9 9 9 9 11 12 13 13 12 12 12 12 13 11 11 12 13
18 18 15 12 11 11 12 12 12 12 11 12 12 11 11 9 9 9 10 11 11 10 9 10 10 12 13 13 14 14 15 14 13 14 15 16 14 13
20 17 13 12 12 12 13 14 12 12 12 12 12 11 11 10 11 9 10 11 11 11 12 13 13 14 14 15 15 15 13 13 16 16 15 16 15 13
19 17 13 10 10 11 12 13 12 14 13 13 13 13 12 12 13 12 11 11 11 11 13 15 15 13 15 16 18 18 15 13 14 15 15 17 17 19
16 15 13 11 10 11 12 13 14 14 14 15 14 14 13 14 14 13 13 14 14 15 16 16 12 13 15 19 22 21 17 17 18 19 19 20 21 23
17 16 16 15 15 14 13 13 14 15 16 17 16 16 15 16 16 16 16 16 16 17 18 15 15 16 17 20 22 21 21 19 19 21 22 23 24 21
18 18 18 18 18 18 17 17 17 17 17 17 17 17 17 18 18 18 19 19 20 20 20 20 19 20 21 21 22 24 23 23 22 22 24 23 24 25

GFSNE_850_spd_117.txt.gz
Wind_Speed
26 23 22 17 20 22 21 20 16 13 11 14 14 15 17 19 18 21 23 20 14 14 14 17 20 20 20 22 24 28 30 24 26 23 20 19 21 27
28 25 17 19 22 18 18 17 16 16 16 12 13 15 17 20 24 25 20 17 11 14 15 18 21 19 19 21 25 29 18 23 24 16 14 13 19 24
23 17 18 17 17 16 15 15 15 15 16 16 19 20 21 23 22 21 19 16 15 16 17 18 16 18 18 22 28 19 13 20 17 13 10 11 13 19
17 19 17 18 15 14 15 15 15 16 18 19 20 22 22 21 23 21 17 14 16 15 16 16 15 16 19 22 22 11 9 16 17 11 7 9 12 18
20 19 17 15 15 15 15 16 17 18 18 19 20 22 22 20 20 18 16 16 15 15 14 16 15 16 19 21 16 8 6 11 5 11 6 8 14 13
18 16 15 15 15 15 16 16 16 17 19 19 21 21 21 20 18 18 16 15 16 14 15 14 15 16 17 19 15 7 3 5 12 13 6 12 18 20
18 17 17 15 15 15 16 16 17 19 20 20 20 19 19 17 15 15 13 13 14 13 13 14 15 15 16 15 12 7 6 4 4 14 13 18 10 11
18 16 15 15 14 15 16 18 19 19 19 19 18 16 14 12 10 12 11 11 12 10 11 13 14 14 14 13 11 7 6 7 4 5 13 15 13 18
16 15 14 14 15 15 16 17 17 16 16 15 15 12 10 8 8 9 9 10 12 11 12 14 13 11 13 12 10 9 7 7 10 9 9 10 10 7
15 16 15 15 14 14 15 14 14 14 13 13 13 14 11 9 10 9 9 10 11 12 12 13 12 12 13 12 10 9 8 8 10 12 12 11 11 12
17 16 14 14 14 15 14 13 14 12 11 11 11 13 11 10 10 11 10 10 11 12 12 13 11 12 12 12 10 9 7 7 9 14 14 14 15 15
16 15 15 14 15 14 13 13 12 9 10 11 12 12 12 10 12 12 11 11 12 10 11 13 13 10 5 6 10 8 7 6 6 10 13 15 15 15
17 16 15 13 12 11 10 10 9 9 9 11 10 11 11 11 11 11 11 12 13 13 15 7 4 5 8 10 7 8 7 8 7 7 7 9 10 12
17 15 13 11 9 8 8 10 10 9 9 10 11 10 10 9 9 10 10 11 13 13 13 10 10 8 8 9 7 4 6 7 7 9 9 10 10 10
18 15 13 11 9 8 7 8 9 8 10 11 9 10 10 9 8 9 10 9 10 10 10 9 10 10 8 8 7 4 3 4 8 11 11 10 10 10
20 17 14 13 11 9 8 9 10 10 12 10 9 9 8 8 8 9 9 8 8 8 8 9 10 10 10 9 8 7 7 4 3 8 11 12 12 14
19 18 15 13 12 12 9 10 11 11 10 8 8 7 7 7 8 9 8 8 7 6 6 7 8 10 11 12 11 9 9 10 10 12 11 11 13 13
23 19 16 14 14 14 11 10 11 11 10 9 9 7 7 8 8 8 8 8 8 7 8 9 9 10 11 9 11 10 12 12 12 14 15 15 13 13
24 21 17 15 15 13 11 11 12 12 11 10 9 9 8 9 9 8 8 8 7 8 9 10 12 11 13 13 12 12 11 9 11 13 14 15 13 13
24 21 19 17 14 11 10 10 11 12 11 10 11 11 11 10 11 9 9 8 8 9 11 12 11 10 12 14 16 15 12 11 11 12 13 15 16 17
24 20 19 17 15 13 12 12 11 11 11 13 12 12 12 12 12 11 10 11 11 12 12 11 8 12 14 18 20 17 12 14 15 16 16 18 18 20
23 20 17 18 18 17 17 16 15 15 15 14 14 13 13 14 14 13 13 13 14 13 13 11 11 14 16 18 19 17 15 13 14 15 17 18 20 18
23 21 20 20 20 20 19 19 17 16 15 14 15 15 16 17 16 16 16 16 16 17 17 17 16 17 18 18 19 20 19 19 19 20 21 19 21 21

GFSNE_850_spd_120.txt.gz
Wind_Speed
21 18 18 19 23 26 27 27 20 16 17 16 17 17 17 17 17 19 21 22 18 15 13 14 16 19 21 23 24 25 29 31 24 23 22 20 18 17
21 22 20 14 21 19 22 19 17 16 14 14 15 15 17 18 19 22 23 18 17 13 13 14 17 18 18 21 22 27 30 21 24 23 16 13 11 13
19 22 24 22 20 21 18 17 16 15 16 17 17 17 18 19 22 22 23 19 16 13 14 15 16 16 17 20 21 28 19 18 24 17 12 9 10 10
18 21 23 20 21 19 17 16 16 15 15 15 16 18 19 21 22 23 19 18 17 13 12 16 15 16 16 19 22 24 13 16 22 18 7 6 5 9
31 28 27 21 21 19 17 16 16 16 15 16 17 19 20 20 21 20 18 17 14 13 14 15 14 15 16 17 19 17 10 10 17 15 8 4 3 8
18 21 23 21 20 19 17 17 16 16 16 16 17 19 20 20 21 18 16 14 11 11 13 15 15 14 15 15 17 15 8 6 12 6 5 10 8 5
22 21 21 19 18 17 16 15 15 16 17 18 19 19 20 19 18 14 13 11 10 12 13 14 13 13 14 15 15 12 7 2 6 12 9 11 12 12
23 22 21 19 17 16 16 15 16 17 18 19 19 19 18 16 12 9 8 9 10 9 9 10 11 11 12 12 15 11 8 5 5 7 9 13 11 6
20 18 18 18 17 17 16 15 16 18 19 18 17 16 15 11 9 7 7 8 9 11 12 12 12 12 11 12 11 9 8 6 9 8 5 11 13 21
18 17 18 18 18 15 14 15 16 17 17 16 15 15 13 10 9 8 7 9 10 11 11 12 11 11 13 13 10 7 7 6 9 10 10 11 4 5
20 19 20 18 13 14 15 16 16 16 15 14 12 12 11 9 9 10 10 10 11 11 11 11 11 12 11 10 9 7 5 7 8 10 13 14 16 13
19 21 18 16 18 15 16 16 15 14 14 12 12 11 11 10 12 12 12 13 11 10 10 10 11 10 3 2 3 6 4 5 7 10 12 13 15 18
20 20 19 19 18 16 16 13 13 13 11 11 10 11 11 11 13 11 13 14 13 12 11 13 9 4 4 6 4 3 4 3 4 6 7 10 13 14
21 20 19 19 17 16 13 12 12 11 11 10 10 10 11 11 13 12 11 12 13 15 15 16 11 8 7 4 3 3 2 4 4 5 6 7 8 10
21 21 20 19 18 15 12 11 11 11 12 11 11 11 11 12 13 12 10 10 9 12 10 9 8 9 8 5 3 2 1 3 5 5 5 6 7 9
24 25 22 19 18 16 15 14 11 11 12 12 12 12 12 12 12 11 10 10 9 8 9 8 7 9 8 7 5 3 5 3 3 4 6 8 9 10
26 25 24 23 21 19 17 15 13 13 12 12 13 12 12 11 11 10 10 9 9 7 7 6 6 8 8 7 6 5 7 7 7 7 8 7 9 11
28 27 27 26 23 20 18 18 15 12 13 14 14 13 13 12 12 9 10 9 9 8 8 7 7 7 6 5 7 7 8 8 9 10 10 11 10 13
29 30 31 28 23 20 21 20 17 14 14 15 15 14 14 14 11 10 10 10 9 8 9 9 8 8 7 7 10 8 6 7 8 7 11 13 12 12
31 32 31 29 25 22 21 21 18 18 16 16 15 15 14 13 12 11 10 9 9 9 9 9 8 8 9 10 12 8 7 7 9 10 10 13 14 15
33 32 30 28 26 22 21 20 18 17 16 16 16 15 14 15 13 13 12 11 10 10 9 7 7 12 12 14 14 9 9 10 11 12 13 16 17 18
31 29 28 26 23 22 23 22 21 20 19 17 15 14 14 15 14 13 12 12 11 10 9 10 12 13 14 14 14 13 10 10 11 12 14 15 16 14
28 29 27 24 23 24 23 23 22 20 17 15 15 15 16 17 15 14 14 14 14 14 14 13 14 15 15 15 16 16 15 14 15 17 17 18 19 20

GFSNE_850_spd_123.txt.gz
Wind_Speed
24 22 25 28 23 21 25 27 25 24 26 25 23 20 20 20 18 18 19 19 21 18 16 15 13 15 18 20 18 20 23 27 25 21 24 20 18 15
29 30 29 28 23 22 17 19 25 26 23 18 20 19 17 18 19 18 19 21 21 18 17 15 14 15 17 16 18 21 24 23 19 23 18 15 12 11
33 33 31 30 29 26 22 22 24 20 21 21 18 17 17 18 18 18 20 22 21 17 16 16 15 16 15 16 18 20 23 13 19 22 15 11 11 11
34 31 28 29 33 22 24 24 22 20 20 19 18 16 17 18 18 20 21 21 19 18 16 14 15 14 14 15 17 22 17 11 17 19 15 7 7 8
27 29 31 26 24 22 24 22 20 18 18 18 16 16 17 18 19 20 20 20 18 17 14 14 13 13 14 15 16 19 14 8 15 16 11 10 3 0
33 29 34 37 32 29 24 19 18 17 17 17 17 17 17 18 19 20 19 17 15 15 13 13 12 14 15 16 17 19 13 5 10 8 12 11 7 5
36 33 26 30 29 25 19 17 18 18 17 18 18 18 18 18 18 19 18 15 13 12 11 11 11 13 13 15 14 16 12 5 5 11 6 13 18 17
27 24 24 24 23 20 17 18 17 17 17 17 18 18 17 17 18 17 13 12 8 8 7 8 8 11 12 12 13 15 9 5 3 6 11 6 4 2
24 24 24 24 21 19 19 18 18 17 18 18 19 18 17 16 16 14 11 9 8 9 9 9 9 11 11 12 13 12 8 6 9 3 8 8 9 20
19 21 21 20 19 19 15 15 15 18 18 18 16 17 16 15 14 13 10 10 8 10 10 10 9 10 12 14 15 11 6 6 9 10 7 9 14 14
20 20 20 20 20 16 15 19 21 19 19 18 17 17 16 14 13 12 11 9 9 10 9 9 10 12 17 14 12 10 7 8 9 13 13 10 10 11
23 22 21 21 20 19 22 20 19 17 18 17 16 15 13 12 13 12 13 12 11 9 10 9 8 11 4 2 5 7 6 7 7 10 14 16 13 13
22 23 22 22 20 21 22 19 17 18 17 16 16 14 14 13 14 14 13 14 14 12 10 9 9 10 8 8 7 5 7 6 5 7 10 14 16 17
23 21 21 21 21 20 19 18 18 18 16 15 15 14 13 14 14 14 12 12 14 15 16 15 17 11 10 8 5 2 5 6 6 6 7 9 12 15
22 22 22 22 22 22 21 20 19 17 15 15 14 14 14 15 15 14 13 12 12 12 12 13 12 9 10 9 5 4 3 7 7 7 7 7 8 9
25 25 25 25 24 22 22 21 19 16 14 14 14 15 15 15 14 14 13 12 12 12 11 11 11 10 10 10 8 7 7 4 6 7 8 7 7 7
26 28 29 29 29 27 26 24 21 18 19 17 17 15 15 15 15 14 14 13 12 10 11 11 10 9 9 9 9 9 9 8 7 5 5 5 6 8
30 32 33 32 32 31 30 27 23 22 19 18 18 17 16 15 15 14 13 13 12 12 12 9 9 8 8 8 9 10 9 9 9 7 7 6 7 9
34 35 35 35 34 33 30 29 26 23 20 19 18 17 16 17 17 15 13 12 12 12 12 12 11 11 9 9 9 7 5 6 6 6 7 9 8 11
32 35 35 36 35 34 32 30 28 26 25 22 19 18 19 19 17 15 13 13 12 13 13 12 11 10 11 12 9 8 8 7 7 8 8 10 9 11
34 35 33 34 34 32 31 29 27 27 26 22 20 20 19 19 17 15 15 14 14 13 12 11 13 14 13 12 9 7 8 8 8 10 11 12 12 12
28 33 34 32 30 30 30 29 27 28 27 24 22 20 19 18 16 17 16 16 15 14 12 14 14 13 12 11 9 8 8 9 10 10 10 11 11 8
26 28 31 29 27 26 26 27 28 29 27 25 22 20 20 19 17 16 17 17 16 15 14 15 15 15 13 11 11 10 9 10 11 12 12 14 15 16

GFSNE_850_spd_126.txt.gz
Wind_Speed
29 26 24 24 22 25 30 30 27 27 30 28 25 25 23 24 21 19 18 18 18 20 21 20 17 18 16 17 18 17 19 22 23 19 20 18 16 16
29 30 28 26 27 30 32 29 28 29 29 24 26 24 22 21 20 19 19 17 20 21 21 17 17 17 17 16 16 17 19 22 15 17 18 16 13 13
24 25 27 29 34 32 31 33 28 26 25 24 24 22 21 20 19 19 17 21 20 20 19 18 16 15 15 14 15 17 19 15 13 20 17 13 11 12
25 27 31 32 32 32 33 35 35 23 25 22 24 18 20 18 18 20 21 20 19 19 18 16 14 15 14 13 13 15 18 12 12 18 17 15 12 8
30 33 32 34 33 30 28 25 28 27 26 24 17 17 18 19 20 20 20 20 19 17 16 14 13 13 13 12 13 16 17 6 9 10 12 15 9 6
25 24 27 29 32 31 29 24 24 25 22 17 19 18 19 18 19 20 19 18 17 15 13 11 12 11 12 11 12 14 13 1 6 4 10 13 9 7
30 34 36 33 32 38 34 32 30 20 18 20 19 21 19 18 18 18 18 18 15 12 11 11 9 10 11 10 11 13 14 2 2 5 4 7 10 11
28 29 30 29 35 29 26 32 22 20 20 19 20 18 18 18 17 18 18 15 11 10 10 7 7 9 9 10 11 12 10 4 5 8 7 2 5 5
27 31 28 31 24 23 22 22 21 19 20 18 17 19 18 16 16 17 15 14 11 11 9 8 7 8 9 9 10 12 9 4 8 5 9 6 13 16
21 21 21 20 24 21 20 18 18 18 17 16 18 18 17 15 15 15 14 14 11 9 9 8 7 7 9 11 14 14 7 5 9 9 8 11 17 13
16 18 19 19 20 19 19 19 18 19 15 17 19 18 17 16 16 15 14 13 10 9 8 8 7 7 11 13 10 8 6 6 9 12 10 9 11 10
17 19 19 19 19 19 18 18 17 16 17 19 17 15 14 14 13 13 13 13 12 9 10 9 8 6 4 2 3 3 6 6 9 12 15 14 12 12
20 20 21 20 22 23 22 20 16 18 22 20 18 17 16 15 15 15 15 15 15 14 10 9 8 8 8 6 5 5 5 7 7 11 14 16 14 14
23 22 21 22 23 24 22 20 24 23 24 20 18 18 17 16 16 15 14 14 14 14 15 15 15 12 11 8 5 4 3 7 8 10 11 14 14 15
24 24 23 24 25 25 23 23 25 24 25 22 19 17 15 16 16 15 14 13 13 13 13 14 14 11 9 8 5 4 4 8 9 9 10 10 11 14
23 24 25 27 27 26 25 26 27 24 22 17 16 17 18 17 17 16 15 14 14 14 13 12 11 10 9 10 8 8 7 5 9 10 10 10 11 12
24 26 28 30 30 30 29 28 27 25 26 23 22 20 17 18 18 17 16 16 15 14 13 12 11 11 11 10 10 10 10 10 8 7 8 10 11 11
26 30 33 33 34 34 33 33 32 31 27 24 24 20 20 19 18 18 17 16 15 14 13 12 11 10 9 9 11 12 13 12 12 10 9 9 9 9
28 32 35 36 37 37 37 37 36 32 29 28 26 21 20 20 20 19 17 16 15 15 15 13 12 10 9 9 9 11 12 12 10 10 10 10 10 11
29 33 35 36 38 39 38 37 35 33 32 31 26 26 23 22 21 20 18 16 16 16 15 14 12 10 11 12 12 11 11 10 9 10 10 9 9 10
29 32 36 37 34 36 38 35 34 34 34 34 30 30 24 24 22 20 18 17 17 17 14 12 10 14 14 13 12 12 13 11 11 12 11 10 10 10
28 30 30 36 36 33 31 29 30 33 34 31 30 29 27 24 21 20 20 20 18 14 11 14 14 13 13 12 11 12 12 12 11 10 9 9 7 5
23 24 27 29 29 28 29 25 26 29 31 30 31 29 26 22 22 21 20 19 17 16 16 16 15 14 13 12 11 11 11 11 11 10 10 10 10 10